SL-16 DEB

Satellite information

Favourite Embed

Satellite Type and Status

DEBRISIN ORBIT

Key statistics

Satellite SL-16 DEB at a glance.

Uptime

11936

Days in orbit

Revolutions

≈ 13.8

Per day

Orbit

LEO

Low Earth Orbit

Inclination

70.8

Latest

Satellite identification and parameters

Extended collection of information and parameters for SL-16 DEB.

Object identification

Identified? True

Debris? True

Object name: SL-16 DEB

International designator: 1992-093AN

Object number (NORAD): 22349

Object ID (CCSDS): 22349

Country: COMMONWEALTH OF INDEPENDENT STATES (CIS)

Current information (Y/N): Y

RCS size: SMALL

Orbital parameters

Period: 104.161 minutes

Inclination: 70.8203 deg

SMA: 7333.263 km

Apoapsis: 1089.521 km

Periapsis: 820.736 km

RAAN: 166.1426 deg

Eccentricy: 0.01832646

Argument of periapsis: 208.4812 deg

Mean anomaly: 227.0454 deg

Mean motion: 13.82473554 rev/day

Mean motion (dot): 0.0000038 rev/day2

B* drag term: 0.00034554006 1/REarth

Two-line elements (TLE)

Creation date: Aug. 30, 2025, 3:38 a.m.

Reference frame: TEME

Reference center: EARTH

Epoch: Aug. 29, 2025, 10:53 p.m. UTC

TLE line 0: 0 SL-16 DEB

TLE line 1: 1 22349U 92093AN 25241.95354704 .00000380 00000-0 34554-3 0 9999

TLE line 2: 2 22349 70.8203 166.1426 0183265 208.4812 227.0454 13.82473554642624

Live tracking on map

Real-time ground track for satellite SL-16 DEB.

In-orbit conjunctions

A list of the most updated potential collisions computed for object SL-16 DEB.

Target Orbit TCA Probability of collision Miss distance Type
CZ-4 DEB SSO 2025-03-05 05:53:11 0.000346213 133.0 (m) DEBRIS
CZ-6A DEB SSO 2024-08-06 02:54:27 0.0001153384 502.0 (m) DEBRIS

Associated space launch

Second generation ELING satellite

SL-16 DEB was lifted into orbit during the mission ‘Zenit-2 | Tselina-2 12’, on board a Zenit-2 space rocket.

The launch took place on Dec. 25, 1992, 5:56 a.m. from 45/1.

For more information about the launch, click the button.

Launch to space Zenit-2 | Tselina-2 12
Zenit-2 | Tselina-2 12

Agency: N/A

Status: Launch Successful

Launch date: Dec. 25, 1992, 5:56 a.m. UTC

Rocket: Zenit-2

Launch pad: 45/1

Location: Baikonur Cosmodrome, Republic of Kazakhstan

...

Latest news about this satellite

There are no fresh news available about this satellite. Check back as we update our databases every day.


Newsletter sign-up

Weekly statistics, charts and insights to help you stay on top of the space industry.